When you browse on this site, cookies collect data to enhance your experience and personalize the content and advertising you see.
Visit our Privacy Policy to learn more. By continuing to use the site, you agree to this use of cookies and data.
  • In Spain
  • List of Countries
  • For 7 days
  • Water Temperature
  • Weather Map
  • Weather Widgets
  • user-avatar
    Login

    Hourly Weather Taraz

    Today, 22 November, Friday

    Time Temperature Precipitation Wind Pressure Humidity
    00:00 -7°C° 0 mm 2 mps 712 mmHg 94%
    01:00 -6°C° 0 mm 1 mps 712 mmHg 94%
    02:00 -6°C° 0 mm 1 mps 712 mmHg 94%
    03:00 -7°C° 0 mm 1 mps 712 mmHg 94%
    04:00 -7°C° 0 mm 1 mps 712 mmHg 94%
    05:00 -7°C° 0 mm 1 mps 712 mmHg 95%
    06:00 -7°C° 0 mm 1 mps 712 mmHg 94%
    07:00 -7°C° 0 mm 1 mps 712 mmHg 93%
    08:00 -7°C° 0 mm 0 mps 712 mmHg 92%
    09:00 -6°C° 0 mm 1 mps 712 mmHg 90%
    10:00 -6°C° 0 mm 1 mps 713 mmHg 88%
    11:00 -4°C° 0 mm 1 mps 713 mmHg 85%
    12:00 -3°C° 0.1 mm 1 mps 713 mmHg 87%
    13:00 -3°C° 0.1 mm 1 mps 713 mmHg 89%
    14:00 -3°C° 0.1 mm 1 mps 713 mmHg 90%
    15:00 -3°C° 0.4 mm 1 mps 714 mmHg 92%
    16:00 -3°C° 0.4 mm 1 mps 714 mmHg 94%
    17:00 -2°C° 0 mm 1 mps 714 mmHg 96%
    18:00 -2°C° 0.2 mm 1 mps 715 mmHg 96%
    19:00 -2°C° 0.2 mm 1 mps 715 mmHg 96%
    20:00 -1°C° 0.2 mm 1 mps 715 mmHg 96%
    21:00 -1°C° 0 mm 1 mps 715 mmHg 96%
    22:00 -2°C° 0 mm 1 mps 715 mmHg 96%
    23:00 -2°C° 0 mm 1 mps 715 mmHg 96%

    Tomorrow, 23 November, Saturday

    Time Temperature Precipitation Wind Pressure Humidity
    00:00 -2°C° 0 mm 1 mps 715 mmHg 95%
    01:00 -1°C° 0 mm 1 mps 715 mmHg 94%
    02:00 -2°C° 0 mm 0 mps 715 mmHg 93%
    03:00 -2°C° 0 mm 0 mps 715 mmHg 93%
    04:00 -2°C° 0 mm 0 mps 715 mmHg 93%
    05:00 -2°C° 0 mm 0 mps 715 mmHg 93%
    06:00 -1°C° 0 mm 0 mps 715 mmHg 93%
    07:00 0°C° 0 mm 1 mps 715 mmHg 92%
    08:00 +1°C° 0 mm 1 mps 715 mmHg 91%
    09:00 +2°C° 0 mm 1 mps 715 mmHg 92%
    10:00 +2°C° 0 mm 0 mps 715 mmHg 93%
    11:00 +3°C° 0 mm 0 mps 715 mmHg 94%
    12:00 +4°C° 0 mm 1 mps 715 mmHg 95%
    13:00 +4°C° 0 mm 1 mps 714 mmHg 96%
    14:00 +4°C° 0 mm 1 mps 714 mmHg 96%
    15:00 +3°C° 0 mm 1 mps 714 mmHg 97%
    16:00 +3°C° 0 mm 1 mps 714 mmHg 98%
    17:00 +2°C° 0 mm 1 mps 714 mmHg 98%
    18:00 +1°C° 0.1 mm 0 mps 714 mmHg 98%
    19:00 +1°C° 0.1 mm 0 mps 714 mmHg 98%
    20:00 +1°C° 0.1 mm 0 mps 714 mmHg 98%
    21:00 +2°C° 0 mm 0 mps 714 mmHg 98%
    22:00 +2°C° 0 mm 0 mps 714 mmHg 98%
    23:00 +2°C° 0 mm 0 mps 714 mmHg 98%

    Day after tomorrow, 24 November, Sunday

    Time Temperature Precipitation Wind Pressure Humidity
    00:00 +2°C° 0 mm 0 mps 714 mmHg 98%
    01:00 +1°C° 0 mm 0 mps 714 mmHg 98%
    02:00 +1°C° 0 mm 0 mps 714 mmHg 98%
    03:00 +1°C° 0.1 mm 0 mps 714 mmHg 98%
    04:00 +1°C° 0.1 mm 0 mps 713 mmHg 98%
    05:00 +1°C° 0.1 mm 0 mps 713 mmHg 99%
    06:00 +1°C° 0.2 mm 0 mps 713 mmHg 99%
    07:00 +1°C° 0.2 mm 0 mps 714 mmHg 99%
    08:00 +1°C° 0.2 mm 0 mps 714 mmHg 99%
    09:00 +2°C° 0.2 mm 1 mps 714 mmHg 98%
    10:00 +3°C° 0.2 mm 1 mps 713 mmHg 98%
    11:00 +3°C° 0.2 mm 1 mps 713 mmHg 97%
    12:00 +3°C° 0.1 mm 1 mps 713 mmHg 97%
    13:00 +3°C° 0.1 mm 1 mps 713 mmHg 97%
    14:00 +3°C° 0.1 mm 1 mps 713 mmHg 96%
    15:00 +3°C° 0.4 mm 1 mps 713 mmHg 97%
    16:00 +1°C° 0.4 mm 2 mps 713 mmHg 97%
    17:00 +1°C° 0.4 mm 2 mps 713 mmHg 98%
    18:00 -1°C° 1 mm 2 mps 713 mmHg 98%
    19:00 -1°C° 1 mm 2 mps 714 mmHg 97%
    20:00 -2°C° 1 mm 2 mps 714 mmHg 97%
    21:00 -2°C° 0.9 mm 2 mps 714 mmHg 97%
    22:00 -3°C° 0.9 mm 2 mps 714 mmHg 97%
    23:00 -5°C° 0.9 mm 3 mps 715 mmHg 96%

    25 November, Monday

    Time Temperature Precipitation Wind Pressure Humidity
    00:00 -4°C° 0.8 mm 2 mps 715 mmHg 96%
    01:00 -2°C° 0.8 mm 1 mps 715 mmHg 95%
    02:00 -2°C° 0.8 mm 1 mps 715 mmHg 94%
    03:00 -3°C° 0.3 mm 1 mps 716 mmHg 92%
    04:00 -3°C° 0.3 mm 1 mps 716 mmHg 91%
    05:00 -4°C° 0.3 mm 1 mps 717 mmHg 89%
    06:00 -6°C° 0 mm 2 mps 717 mmHg 87%
    07:00 -7°C° 0 mm 2 mps 717 mmHg 85%
    08:00 -8°C° 0 mm 2 mps 717 mmHg 82%
    09:00 -7°C° 0 mm 2 mps 717 mmHg 80%
    10:00 -3°C° 0 mm 1 mps 717 mmHg 78%
    11:00 -2°C° 0 mm 1 mps 717 mmHg 76%
    12:00 -2°C° 0 mm 1 mps 717 mmHg 77%
    13:00 -1°C° 0 mm 1 mps 717 mmHg 77%
    14:00 -1°C° 0 mm 1 mps 716 mmHg 78%
    15:00 -2°C° 0 mm 1 mps 716 mmHg 81%
    16:00 -3°C° 0 mm 1 mps 716 mmHg 83%
    17:00 -4°C° 0 mm 1 mps 716 mmHg 86%
    18:00 -6°C° 0 mm 1 mps 716 mmHg 84%
    19:00 -6°C° 0 mm 1 mps 716 mmHg 82%
    20:00 -7°C° 0 mm 1 mps 716 mmHg 80%
    21:00 -7°C° 0 mm 1 mps 716 mmHg 77%
    22:00 -7°C° 0 mm 1 mps 716 mmHg 73%
    23:00 -8°C° 0 mm 1 mps 716 mmHg 70%

    26 November, Tuesday

    Time Temperature Precipitation Wind Pressure Humidity
    00:00 -8°C° 0 mm 1 mps 716 mmHg 68%
    01:00 -8°C° 0 mm 1 mps 716 mmHg 66%
    02:00 -8°C° 0 mm 1 mps 716 mmHg 64%
    03:00 -8°C° 0 mm 1 mps 716 mmHg 62%
    04:00 -8°C° 0 mm 1 mps 716 mmHg 61%
    05:00 -8°C° 0 mm 1 mps 715 mmHg 59%
    06:00 -8°C° 0 mm 1 mps 715 mmHg 58%
    07:00 -8°C° 0 mm 1 mps 716 mmHg 57%
    08:00 -8°C° 0 mm 1 mps 716 mmHg 56%
    09:00 -6°C° 0 mm 1 mps 716 mmHg 57%
    10:00 -3°C° 0 mm 1 mps 716 mmHg 58%
    11:00 -2°C° 0 mm 0 mps 716 mmHg 59%
    12:00 -2°C° 0 mm 0 mps 715 mmHg 62%
    13:00 -2°C° 0 mm 0 mps 715 mmHg 65%
    14:00 0°C° 0 mm 1 mps 715 mmHg 69%
    15:00 -2°C° 0 mm 1 mps 714 mmHg 70%
    16:00 -5°C° 0 mm 0 mps 714 mmHg 72%
    17:00 -7°C° 0 mm 0 mps 714 mmHg 73%
    18:00 -7°C° 0 mm 1 mps 714 mmHg 70%
    19:00 -7°C° 0 mm 1 mps 715 mmHg 68%
    20:00 -7°C° 0 mm 1 mps 715 mmHg 65%
    21:00 -7°C° 0 mm 1 mps 715 mmHg 63%
    22:00 -8°C° 0 mm 1 mps 715 mmHg 62%
    23:00 -8°C° 0 mm 1 mps 714 mmHg 60%

    27 November, Wednesday

    Time Temperature Precipitation Wind Pressure Humidity
    00:00 -8°C° 0 mm 1 mps 714 mmHg 60%
    01:00 -8°C° 0 mm 1 mps 714 mmHg 59%
    02:00 -9°C° 0 mm 1 mps 714 mmHg 59%
    03:00 -9°C° 0 mm 1 mps 714 mmHg 57%
    04:00 -9°C° 0 mm 1 mps 714 mmHg 56%
    05:00 -9°C° 0 mm 1 mps 714 mmHg 55%
    06:00 -9°C° 0 mm 1 mps 714 mmHg 53%
    07:00 -9°C° 0 mm 1 mps 714 mmHg 51%
    08:00 -8°C° 0 mm 1 mps 715 mmHg 50%
    09:00 -7°C° 0 mm 1 mps 715 mmHg 53%
    10:00 -4°C° 0 mm 1 mps 715 mmHg 55%
    11:00 -2°C° 0 mm 1 mps 715 mmHg 58%
    12:00 -2°C° 0 mm 1 mps 715 mmHg 62%
    13:00 -1°C° 0 mm 1 mps 715 mmHg 65%
    14:00 -1°C° 0 mm 1 mps 715 mmHg 68%
    15:00 -3°C° 0 mm 1 mps 715 mmHg 70%
    16:00 -4°C° 0 mm 1 mps 715 mmHg 71%
    17:00 -7°C° 0 mm 0 mps 715 mmHg 72%
    18:00 -7°C° 0 mm 1 mps 715 mmHg 68%
    19:00 -7°C° 0 mm 1 mps 715 mmHg 65%
    20:00 -7°C° 0 mm 1 mps 715 mmHg 62%
    21:00 -7°C° 0 mm 1 mps 715 mmHg 61%
    22:00 -7°C° 0 mm 1 mps 715 mmHg 59%
    23:00 -8°C° 0 mm 0 mps 715 mmHg 57%
    Show more